User: anonymous   Login
Location: Unspecified
(0.0000°N, 0.0000°E)
Time: 03:15:26
(UTC+00:00)
Language:

LES 1 - Orbit

View from above orbital plane
View from above orbital plane
View from above satellite
View from above satellite

Ground track
Ground track

The orbit data is extracted from the following two-line orbital elements,

1  1002U 65008C   19081.40068160 +.00000001 +00000-0 -93630-3 0  9992
2  1002 032.1400 187.7367 0014694 073.2142 286.9966 09.88353114954610
Epoch (UTC): 22 March 2019 09:36:58
Eccentricity: 0.0014694
inclination: 32.1400°
perigee height: 2780 km
apogee height: 2807 km
right ascension of ascending node: 187.7367°
argument of perigee: 73.2142°
revolutions per day: 9.88353114
mean anomaly at epoch: 286.9966°
orbit number at epoch: 95461

The dashed part of the orbit path shows where the satellite is in the earth's shadow,  

DLR